This demonstration page uses our WeatherBlox Daily Observations layout. Learn more.

Left ArrowRight Arrow

39.51506, -84.39828

Hourly Observations for April 23, 2015

Temp ( °F °C ) Dew Point ( °F °C ) Humidity (%) Winds ( mph kmh ) Pressure ( in mb ) Visibility ( mi km ) Precip ( " mm )
12:15 am 00:15 Partly Cloudy 38 3.3 32 undefined 79 79 WNW 5 7 29.94 1014 10 16.0934 N/A
12:35 am 00:35 Clear 37 2.6 32 -0.2 82 82 N N/A 29.94 1014 10 16.0934 N/A
12:55 am 00:55 Clear 37 2.6 32 -0.1 83 83 N N/A 29.94 1014 10 16.0934 N/A
1:15 am 01:15 Clear 37 2.6 32 undefined 83 83 N N/A 29.94 1014 10 16.0934 N/A
1:35 am 01:35 Clear 37 2.6 32 0.1 84 84 N N/A 29.94 1014 10 16.0934 N/A
1:55 am 01:55 Clear 37 2.6 32 0.1 84 84 N N/A 29.94 1014 10 16.0934 N/A
2:15 am 02:15 Clear 37 2.6 32 0.1 84 84 N N/A 29.94 1014 10 16.0934 N/A
2:35 am 02:35 Clear 37 2.6 31 -0.3 81 81 N N/A 29.94 1014 10 16.0934 N/A
2:55 am 02:55 Clear 37 2.6 31 -0.7 79 79 N N/A 29.94 1014 10 16.0934 N/A
3:15 am 03:15 Clear 35 1.4 30 -1.2 83 83 SW 3 6 29.97 1015 10 16.0934 N/A
3:35 am 03:35 Clear 34 1.2 30 -1.2 84 84 SW 3 6 29.97 1015 10 16.0934 N/A
3:55 am 03:55 Clear 34 1.2 30 -1 85 85 SW 5 7 29.97 1015 10 16.0934 N/A
4:15 am 04:15 Clear 34 1.2 30 -1.2 84 84 SW 3 6 29.97 1015 10 16.0934 N/A
4:35 am 04:35 Clear 34 1.2 30 -1 85 85 SW 5 7 29.97 1015 10 16.0934 N/A
4:55 am 04:55 Clear 34 1.2 30 -1.2 84 84 SW 3 6 30 1016 10 16.0934 N/A
5:15 am 05:15 Clear 34 1.2 30 -0.9 86 86 N N/A 30 1016 10 16.0934 N/A
5:35 am 05:35 Clear 33 0.4 29 -1.9 85 85 N N/A 30 1016 10 16.0934 N/A
5:55 am 05:55 Clear 33 0.4 29 -1.6 87 87 N N/A 30 1016 10 16.0934 N/A
6:15 am 06:15 Clear 34 1.2 30 -1 85 85 N N/A 30 1016 10 16.0934 N/A
6:35 am 06:35 Clear 31 -0.3 28 -2.5 85 85 N N/A 30 1016 10 16.0934 N/A
6:55 am 06:55 Sunny 32 0.2 29 -1.8 87 87 N N/A 30 1016 10 16.0934 N/A
7:15 am 07:15 Sunny 34 1.2 31 -0.6 88 88 N N/A 30 1016 10 16.0934 N/A
7:35 am 07:35 Sunny 34 1.2 31 -0.8 87 87 N N/A 30 1016 10 16.0934 N/A
7:55 am 07:55 Sunny 36 2.2 31 -0.3 84 84 SW 6 9 30.03 1017 10 16.0934 N/A
8:15 am 08:15 Sunny 39 4 32 -0.1 75 75 WSW 5 7 30 1016 10 16.0934 N/A
8:35 am 08:35 Sunny 42 5.5 27 -2.6 56 56 W 12 19 30 1016 10 16.0934 N/A
8:55 am 08:55 Sunny 42 5.7 27 -2.8 55 55 W 9 15 30 1016 10 16.0934 N/A
9:15 am 09:15 Sunny 44 6.7 25 -3.9 47 47 WNW 8 13 30 1016 10 16.0934 N/A
9:35 am 09:35 Sunny 48 8.9 27 -2.9 44 44 WNW 8 13 30 1016 10 16.0934 N/A
9:55 am 09:55 Sunny 49 9.6 26 -3.2 41 41 W 9 15 30 1016 10 16.0934 N/A
10:15 am 10:15 Sunny 49 9.6 25 -3.8 39 39 W 8 13 30 1016 10 16.0934 N/A
10:35 am 10:35 Sunny 49 9.6 24 -4.5 37 37 WNW 8 13 30 1016 10 16.0934 N/A
10:55 am 10:55 Sunny 50 10.2 24 -4.3 36 36 NW 9 15 30.03 1017 10 16.0934 N/A
11:15 am 11:15 Sunny 51 10.4 25 -3.9 37 37 W 9 15 30.03 1017 10 16.0934 N/A
11:35 am 11:35 Sunny 52 11 25 -3.9 35 35 WNW 13 20 30.03 1017 10 16.0934 N/A
11:55 am 11:55 Partly Cloudy 52 11.1 24 -4.2 34 34 NNW 12 19 30.03 1017 10 16.0934 N/A
12:15 pm 12:15 Partly Cloudy 54 12.2 22 -5.4 29 29 WNW 12 19 30.03 1017 10 16.0934 N/A
12:35 pm 12:35 Partly Cloudy 53 11.7 23 -4.9 31 31 WNW 12 19 30.03 1017 10 16.0934 N/A
12:55 pm 12:55 Mostly Cloudy 55 12.5 22 -5.7 28 28 WNW 13 20 30.03 1017 10 16.0934 N/A
1:15 pm 13:15 Partly Cloudy 55 12.5 20 -6.7 26 26 W 13 20 30.03 1017 10 16.0934 N/A
1:40 pm 13:40 Partly Cloudy 55 12.5 20 -6.7 26 26 W 12 19 30.03 1017 10 16.0934 N/A
1:55 pm 13:55 Partly Cloudy 55 12.5 19 -7.2 25 25 WNW 16 26 30.03 1017 10 16.0934 N/A
2:15 pm 14:15 Sunny 55 12.5 17 -8.6 22 22 W 8 13 30.03 1017 10 16.0934 N/A
2:35 pm 14:35 Partly Cloudy 55 12.8 20 -6.8 25 25 NW 14 22 30.03 1017 10 16.0934 N/A
2:55 pm 14:55 Partly Cloudy 56 13.3 19 -7.3 23 23 WNW 16 26 30.03 1017 10 16.0934 N/A
3:15 pm 15:15 Partly Cloudy 57 13.8 20 -6.5 24 24 WNW 15 24 30.03 1017 10 16.0934 N/A
3:35 pm 15:35 Partly Cloudy 57 13.8 20 -6.7 24 24 NW 18 30 30 1016 10 16.0934 N/A
3:55 pm 15:55 Partly Cloudy 57 13.8 18 -8 21 21 WNW 16 26 30 1016 10 16.0934 N/A
4:15 pm 16:15 Sunny 56 13.5 18 -7.9 22 22 WNW 16 26 30 1016 10 16.0934 N/A
4:35 pm 16:35 Partly Cloudy 57 13.8 17 -8.2 21 21 WNW 12 19 30 1016 10 16.0934 N/A
4:55 pm 16:55 Partly Cloudy 57 13.8 15 -9.4 19 19 WNW 17 28 30 1016 10 16.0934 N/A
5:15 pm 17:15 Partly Cloudy 57 13.8 15 -9.7 19 19 W 15 24 30 1016 10 16.0934 N/A
5:35 pm 17:35 Partly Cloudy 57 13.8 14 -10.1 18 18 WNW 17 28 30.03 1017 10 16.0934 N/A
5:55 pm 17:55 Partly Cloudy 57 13.8 15 -9.4 19 19 NNW 17 28 30.03 1017 10 16.0934 N/A
6:15 pm 18:15 Partly Cloudy 57 13.8 15 -9.6 19 19 NW 17 28 30.03 1017 10 16.0934 N/A
6:35 pm 18:35 Partly Cloudy 57 13.8 15 -9.3 19 19 WNW 16 26 30.03 1017 10 16.0934 N/A
6:55 pm 18:55 Sunny 55 12.5 13 -10.3 19 19 NW 16 26 30.03 1017 10 16.0934 N/A
7:15 pm 19:15 Partly Cloudy 55 12.5 16 -9 22 22 WNW 14 22 30.03 1017 10 16.0934 N/A
7:35 pm 19:35 Partly Cloudy 55 12.5 15 -9.2 21 21 WNW 9 15 30.03 1017 10 16.0934 N/A
7:55 pm 19:55 Partly Cloudy 55 12.5 16 -9 22 22 NW 13 20 30.03 1017 10 16.0934 N/A
8:15 pm 20:15 Sunny 52 10.9 18 -7.8 26 26 NW 6 9 30.03 1017 10 16.0934 N/A
8:35 pm 20:35 Clear 49 9.6 20 -6.9 31 31 NW 6 9 30.03 1017 10 16.0934 N/A
8:55 pm 20:55 Clear 49 9.6 20 -6.8 31 31 NW 5 7 30.06 1018 10 16.0934 N/A
9:15 pm 21:15 Clear 49 9.6 23 -5.1 35 35 NW 3 6 30.06 1018 10 16.0934 N/A
9:35 pm 21:35 Clear 44 6.5 29 -1.4 57 57 N N/A 30.06 1018 10 16.0934 N/A
9:55 pm 21:55 Clear 43 6.1 31 -0.5 63 63 N 5 7 30.06 1018 10 16.0934 N/A
10:15 pm 22:15 Clear 42 5.7 31 -0.6 64 64 N 5 7 30.06 1018 10 16.0934 N/A
10:35 pm 22:35 Clear 40 4.7 31 -0.8 68 68 N 3 6 30.06 1018 10 16.0934 N/A
10:55 pm 22:55 Clear 40 4.5 29 -1.5 65 65 N 5 7 30.09 1019 10 16.0934 N/A
11:15 pm 23:15 Clear 40 4.6 29 -1.7 64 64 N 3 6 30.09 1019 10 16.0934 N/A
11:35 pm 23:35 Clear 41 5.2 29 -1.4 63 63 N N/A 30.09 1019 10 16.0934 N/A
11:55 pm 23:55 Clear 39 4 30 -1.3 69 69 N N/A 30.12 1020 10 16.0934 N/A

Powered by AerisWeather